AirNav   Pilot Hours Calculator
 
 326 users online  

1MS8 Columbus Air Force Base Auxiliary Field (Gunshy)
Shuqualak, Mississippi, USA

GOING TO SHUQUALAK?


FAA INFORMATION EFFECTIVE 10 OCTOBER 2019

Location

FAA Identifier: 1MS8
Lat/Long: 32-56-24.4640N 088-34-45.1550W
32-56.407733N 088-34.752583W
32.9401289,-88.5792097
(estimated)
Elevation: 260 ft. / 79 m (estimated)
Variation: 02E (1985)
From city: 3 miles S of SHUQUALAK, MS
Time zone: UTC -5 (UTC -6 during Standard Time)
Zip code: 39361

Airport Operations

Airport use: Private use. Permission required prior to landing
Control tower: no
ARTCC: MEMPHIS CENTER
FSS: GREENWOOD FLIGHT SERVICE STATION
Attendance: UNATNDD
Wind indicator: yes
Segmented circle: no

Airport Communications

CTAF: 122.7

Nearby radio navigation aids

VOR radial/distance  VOR name  Freq  Var
IGBr182/32.9BIGBEE VORTAC116.2004E
EWAr346/34.9KEWANEE VORTAC113.8004E
MEIr014/35.6MERIDIAN VORTAC117.0005E

Airport Services

Runway Information

Runway 13/31

Dimensions: 6300 x 150 ft. / 1920 x 46 m
Surface: asphalt/concrete
Weight bearing capacity: 
PCN 12 /R/B/W/T
Operational restrictions: 900 FT OVERRUN EACH END.
RUNWAY 13  RUNWAY 31
Latitude: 32-56.765667N32-56.057000N
Longitude: 088-35.203833W088-34.302500W
Traffic pattern: leftleft

Airport Ownership and Management from official FAA records

Ownership: U.S. Air Force
Owner: HQ 14TH FLYING TRAINING WING
COLUMBUS AFB
COLUMBUS, MS 39701-5000
Phone 601-434-7560
Manager: MAJOR LANDRY
HQ 14TH FLYING TRAINING WING
COLUMBUS AFB, MS 39701-5000
Phone 601-434-7560

Additional Remarks

RSTD: LTD EXCLUSIVELY TO COLUMBUS AFB T-6 JET TRNG ACFT.
MISC: RY SUPERVISORY STRUCTURE (RSS) CALLED GUNSHY, FREQ 363.65/140.2 CTL THE T-6 ACFT.
FOR CD CTC MERIDIAN APCH 601-679-3691, WHEN MERIDIAN APCH CLSD CTC MEMPHIS ARTCC AT 901-368-8453.

Instrument Procedures

There are no published instrument procedures at 1MS8.

Some nearby airports with instrument procedures:

KNJW - Joe Williams Naval Outlying Field (15 nm SW)
KAIV - George Downer Airport (22 nm NE)
KNMM - Meridian Naval Air Station (Mc Cain Field) (23 nm S)
KLMS - Louisville Winston County Airport (27 nm NW)
KMPE - Philadelphia Municipal Airport (29 nm W)
 
Loc | Ops | Rwys | IFR | FBO | Links
Com | Nav | Svcs | Stats | Notes
Area around 1MS8 (Columbus Air Force Base Auxiliary Field (Gunshy))
 
Road maps at: MapQuest Bing Google
 
Aerial photo
No photo
 
Sectional chart

 
Airport distance calculator
Flying to Columbus Air Force Base Auxiliary Field (Gunshy)? Find the distance to fly.

From to 1MS8

Sunrise and sunset
Times for 17-Oct-2019
 Local
(UTC-5)
 Zulu
(UTC)
Morning civil twilight06:3611:36
Sunrise07:0112:01
Sunset18:1823:18
Evening civil twilight18:4323:43

Current date and time
Zulu (UTC)  17-Oct-2019 09:42:13
Local (UTC-5)  17-Oct-2019 04:42:13
 
METAR
KNMM 
24nm S 
170856Z AUTO 00000KT 9SM CLR 06/06 A3005 RMK AO2 SLP184 T00610056 56004
KGTR 
31nm N 
170856Z AUTO 26003KT 10SM CLR 07/07 A3005 RMK AO2 SLP183 T00720067 58004
KSTF 
33nm NW 
170915Z AUTO 00000KT 10SM CLR 06/06 A3006 RMK AO2
KMEI 
37nm S 
170858Z AUTO 33003KT 10SM R01/5000VP6000FT CLR 08/06 A3004 RMK AO2 SLP170 T00780061 58003 $
KCBM 
42nm N 
170856Z AUTO 31005KT 10SM CLR 08/06 A3004 RMK AO2 SLP175 T00790062 58001 $
KDYA 
43nm SE 
170915Z AUTO 00000KT 7SM CLR 07/07 A3004 RMK AO2 T00700066
TAF
KNMM 
24nm S 
1707/1807 VRB06KT 9999 FEW250 542409 543309 QNH2999INS FM171400 VRB06KT 9999 BKN250 50000 QNH2996INS BECMG 1719/1721 VRB06KT 9999 BKN250 QNH2990INS AUTOMATED SENSOR METWATCH 1707 TIL 1712 T07/1712Z T20/1720Z COR 0731 FN00204
NOTAMs
Click for the latest NOTAMs
NOTAMs are issued by the DoD/FAA and will open in a separate window not controlled by AirNav.

 

 
 

Would you like to see your business listed on this page?

 If your business provides an interesting product or service to pilots, flight crews, aircraft, or users of the Columbus Air Force Base Auxiliary Field (Gunshy), you should consider listing it here.  To start the listing process, click on the button below
 
Add a business
 

Other Pages about Columbus Air Force Base Auxiliary Field (Gunshy)

Update a link
 
Copyright © AirNav, LLC. All rights reserved. Privacy Policy  Contact